Tracking 23728 objects as of 23-Sep-2021
HD Live streaming from Space Station
objects crossing your sky now

STARLINK-1171

Track STARLINK-1171 now!
10-day predictions
STARLINK-1171 is classified as:


NORAD ID: 45062
Int'l Code: 2020-006U
Perigee: 553.5 km
Apogee: 555.2 km
Inclination: 53.1 °
Period: 95.6 minutes
Semi major axis: 6925 km
RCS: Unknown
Launch date: January 29, 2020
Source: United States (US)
Launch site: AIR FORCE EASTERN TEST RANGE (AFETR)
aabbcc
Your satellite tracking list
Your tracking list is empty




NASA's NSSDC Master Catalog

Two Line Element Set (TLE):
1 45062U 20006U   21265.66907384  .00002891  00000-0  21289-3 0  9999
2 45062  53.0558  39.5749 0001267 106.0647 254.0481 15.06395963 90934
Source of the keplerian elements: AFSPC